Time,TemperatureF,DewpointF,PressureIn,WindDirection,WindDirectionDegrees,WindSpeedMPH,WindSpeedGustMPH,Humidity,HourlyPrecipIn,Conditions,Clouds,dailyrainin,SolarRadiationWatts/m^2,SoftwareType,DateUTC
2013-12-02 00:01:00,47.0,43.0,-100.00,North,352,3.0,4.0,86,0.00,,,0.00,0.000000,,2013-12-02 07:01:00,
2013-12-02 00:42:00,48.0,44.0,-100.00,ENE,74,1.0,4.0,87,0.00,,,0.00,1.000000,,2013-12-02 07:42:00,
2013-12-02 00:52:00,48.0,44.0,-100.00,ENE,74,1.0,4.0,87,0.00,,,0.00,1.000000,,2013-12-02 07:52:00,
2013-12-02 01:01:00,48.0,44.0,-100.00,ENE,74,1.0,4.0,87,0.00,,,0.00,1.000000,,2013-12-02 08:01:00,
2013-12-02 01:42:00,46.0,42.0,-100.00,NNE,25,2.0,4.0,86,0.00,,,0.00,1.000000,,2013-12-02 08:42:00,
2013-12-02 01:52:00,46.0,42.0,-100.00,NNE,25,2.0,4.0,86,0.00,,,0.00,1.000000,,2013-12-02 08:52:00,
2013-12-02 02:01:00,46.0,42.0,-100.00,NNE,25,2.0,4.0,86,0.00,,,0.00,1.000000,,2013-12-02 09:01:00,
2013-12-02 02:43:00,47.0,41.0,-100.00,NNE,25,2.0,4.0,79,0.00,,,0.00,1.000000,,2013-12-02 09:43:00,
2013-12-02 02:54:00,47.0,41.0,-100.00,NNE,25,2.0,4.0,79,0.00,,,0.00,1.000000,,2013-12-02 09:54:00,
2013-12-02 03:03:00,47.0,41.0,-100.00,NNE,25,2.0,4.0,79,0.00,,,0.00,1.000000,,2013-12-02 10:03:00,
2013-12-02 03:42:00,45.0,38.0,-100.00,ENE,71,2.0,4.0,77,0.00,,,0.00,1.000000,,2013-12-02 10:42:00,
2013-12-02 03:52:00,45.0,38.0,-100.00,ENE,71,2.0,4.0,77,0.00,,,0.00,1.000000,,2013-12-02 10:52:00,
2013-12-02 04:02:00,45.0,38.0,-100.00,ENE,71,2.0,4.0,77,0.00,,,0.00,1.000000,,2013-12-02 11:02:00,
2013-12-02 04:42:00,42.0,38.0,-100.00,North,11,3.0,4.0,84,0.00,,,0.00,1.000000,,2013-12-02 11:42:00,
2013-12-02 04:53:00,42.0,38.0,-100.00,North,11,3.0,4.0,84,0.00,,,0.00,1.000000,,2013-12-02 11:53:00,
2013-12-02 05:02:00,42.0,38.0,-100.00,North,11,3.0,4.0,84,0.00,,,0.00,1.000000,,2013-12-02 12:02:00,
2013-12-02 05:42:00,46.0,40.0,-100.00,NNE,18,5.0,7.0,79,0.00,,,0.00,0.000000,,2013-12-02 12:42:00,
2013-12-02 05:52:00,46.0,40.0,-100.00,NNE,18,5.0,7.0,79,0.00,,,0.00,0.000000,,2013-12-02 12:52:00,
2013-12-02 06:01:00,46.0,40.0,-100.00,NNE,18,5.0,7.0,79,0.00,,,0.00,0.000000,,2013-12-02 13:01:00,
2013-12-02 08:43:00,46.0,41.0,-100.00,NNW,342,2.0,5.0,81,0.00,,,0.00,37.000000,,2013-12-02 15:43:00,
2013-12-02 08:54:00,46.0,41.0,-100.00,NNW,342,2.0,5.0,81,0.00,,,0.00,37.000000,,2013-12-02 15:54:00,
2013-12-02 09:03:00,46.0,41.0,-100.00,NNW,342,2.0,5.0,81,0.00,,,0.00,37.000000,,2013-12-02 16:03:00,
2013-12-02 09:43:00,57.0,42.0,-100.00,ESE,116,2.0,4.0,58,0.00,,,0.00,243.000000,,2013-12-02 16:43:00,
2013-12-02 09:53:00,57.0,42.0,-100.00,ESE,116,2.0,4.0,58,0.00,,,0.00,243.000000,,2013-12-02 16:53:00,
2013-12-02 10:02:00,57.0,42.0,-100.00,ESE,116,2.0,4.0,58,0.00,,,0.00,243.000000,,2013-12-02 17:02:00,
2013-12-02 10:42:00,62.0,45.0,-100.00,SE,140,3.0,6.0,53,0.00,,,0.00,398.000000,,2013-12-02 17:42:00,
2013-12-02 10:53:00,62.0,45.0,-100.00,SE,140,3.0,6.0,53,0.00,,,0.00,398.000000,,2013-12-02 17:53:00,
2013-12-02 11:01:00,62.0,45.0,-100.00,SE,140,3.0,6.0,53,0.00,,,0.00,398.000000,,2013-12-02 18:01:00,
2013-12-02 11:42:00,64.0,43.0,-100.00,SE,130,3.0,6.0,46,0.00,,,0.00,525.000000,,2013-12-02 18:42:00,
2013-12-02 11:52:00,64.0,43.0,-100.00,SE,130,3.0,6.0,46,0.00,,,0.00,525.000000,,2013-12-02 18:52:00,
2013-12-02 12:02:00,64.0,43.0,-100.00,SE,130,3.0,6.0,46,0.00,,,0.00,525.000000,,2013-12-02 19:02:00,
2013-12-02 12:42:00,69.0,40.0,-100.00,WSW,250,3.0,5.0,35,0.00,,,0.00,612.000000,,2013-12-02 19:42:00,
2013-12-02 12:52:00,69.0,40.0,-100.00,WSW,250,3.0,5.0,35,0.00,,,0.00,612.000000,,2013-12-02 19:52:00,
2013-12-02 13:02:00,69.0,40.0,-100.00,WSW,250,3.0,5.0,35,0.00,,,0.00,612.000000,,2013-12-02 20:02:00,
2013-12-02 13:42:00,73.0,36.0,-100.00,SSW,201,3.0,7.0,26,0.00,,,0.00,631.000000,,2013-12-02 20:42:00,
2013-12-02 13:52:00,73.0,36.0,-100.00,SSW,201,3.0,7.0,26,0.00,,,0.00,631.000000,,2013-12-02 20:52:00,
2013-12-02 14:02:00,73.0,36.0,-100.00,SSW,201,3.0,7.0,26,0.00,,,0.00,631.000000,,2013-12-02 21:02:00,
2013-12-02 14:43:00,73.0,34.0,-100.00,WSW,252,3.0,7.0,24,0.00,,,0.00,569.000000,,2013-12-02 21:43:00,
2013-12-02 14:53:00,73.0,34.0,-100.00,WSW,252,3.0,7.0,24,0.00,,,0.00,569.000000,,2013-12-02 21:53:00,
2013-12-02 15:03:00,73.0,34.0,-100.00,WSW,252,3.0,7.0,24,0.00,,,0.00,569.000000,,2013-12-02 22:03:00,
2013-12-02 15:43:00,73.0,36.0,-100.00,SSW,205,4.0,7.0,26,0.00,,,0.00,459.000000,,2013-12-02 22:43:00,
2013-12-02 15:53:00,73.0,36.0,-100.00,SSW,205,4.0,7.0,26,0.00,,,0.00,459.000000,,2013-12-02 22:53:00,
2013-12-02 16:02:00,73.0,36.0,-100.00,SSW,205,4.0,7.0,26,0.00,,,0.00,459.000000,,2013-12-02 23:02:00,
2013-12-02 16:42:00,72.0,34.0,-100.00,SSW,209,6.0,9.0,25,0.00,,,0.00,304.000000,,2013-12-02 23:42:00,
2013-12-02 16:53:00,72.0,34.0,-100.00,SSW,209,6.0,9.0,25,0.00,,,0.00,304.000000,,2013-12-02 23:53:00,
2013-12-02 17:02:00,72.0,34.0,-100.00,SSW,209,6.0,9.0,25,0.00,,,0.00,304.000000,,2013-12-03 00:02:00,
2013-12-02 17:42:00,68.0,36.0,-100.00,WNW,302,2.0,9.0,31,0.00,,,0.00,107.000000,,2013-12-03 00:42:00,
2013-12-02 17:52:00,68.0,36.0,-100.00,WNW,302,2.0,9.0,31,0.00,,,0.00,107.000000,,2013-12-03 00:52:00,
2013-12-02 18:01:00,68.0,36.0,-100.00,WNW,302,2.0,9.0,31,0.00,,,0.00,107.000000,,2013-12-03 01:01:00,
2013-12-02 18:42:00,56.0,38.0,-100.00,NNW,346,3.0,4.0,50,0.00,,,0.00,2.000000,,2013-12-03 01:42:00,
2013-12-02 18:52:00,56.0,38.0,-100.00,NNW,346,3.0,4.0,50,0.00,,,0.00,2.000000,,2013-12-03 01:52:00,
2013-12-02 19:01:00,56.0,38.0,-100.00,NNW,346,3.0,4.0,50,0.00,,,0.00,2.000000,,2013-12-03 02:01:00,
2013-12-02 19:42:00,57.0,38.0,-100.00,ESE,104,1.0,7.0,48,0.00,,,0.00,1.000000,,2013-12-03 02:42:00,
2013-12-02 19:52:00,57.0,38.0,-100.00,ESE,104,1.0,7.0,48,0.00,,,0.00,1.000000,,2013-12-03 02:52:00,
2013-12-02 20:02:00,57.0,38.0,-100.00,ESE,104,1.0,7.0,48,0.00,,,0.00,1.000000,,2013-12-03 03:02:00,
2013-12-02 20:43:00,52.0,38.0,-100.00,NNE,18,1.0,5.0,59,0.00,,,0.00,1.000000,,2013-12-03 03:43:00,
2013-12-02 20:53:00,52.0,38.0,-100.00,NNE,18,1.0,5.0,59,0.00,,,0.00,1.000000,,2013-12-03 03:53:00,
2013-12-02 21:03:00,52.0,38.0,-100.00,NNE,18,1.0,5.0,59,0.00,,,0.00,1.000000,,2013-12-03 04:03:00,
2013-12-02 21:43:00,51.0,38.0,-100.00,East,87,2.0,3.0,61,0.00,,,0.00,1.000000,,2013-12-03 04:43:00,
2013-12-02 21:52:00,51.0,38.0,-100.00,East,87,2.0,3.0,61,0.00,,,0.00,1.000000,,2013-12-03 04:52:00,
2013-12-02 22:02:00,51.0,38.0,-100.00,East,87,2.0,3.0,61,0.00,,,0.00,1.000000,,2013-12-03 05:02:00,
2013-12-02 22:43:00,48.0,37.0,-100.00,NE,45,1.0,3.0,65,0.00,,,0.00,1.000000,,2013-12-03 05:43:00,
2013-12-02 22:53:00,48.0,37.0,-100.00,NE,45,1.0,3.0,65,0.00,,,0.00,1.000000,,2013-12-03 05:53:00,
2013-12-02 23:02:00,48.0,37.0,-100.00,NE,45,1.0,3.0,65,0.00,,,0.00,1.000000,,2013-12-03 06:02:00,
2013-12-02 23:42:00,48.0,37.0,-100.00,North,4,3.0,4.0,66,0.00,,,0.00,1.000000,,2013-12-03 06:42:00,
2013-12-02 23:52:00,48.0,37.0,-100.00,North,4,3.0,4.0,66,0.00,,,0.00,1.000000,,2013-12-03 06:52:00,